| time (UTC) | temp F | wind direction | speed MPH | gust MPH | rain 1hr in | rain 24hr in | rain mn in | humidity % | barometer mb |
| 20260508024610 | 42 | 0 | 0.0 | 0.0 | 0.00 | 0.00 | 0.00 | 59 | 1009.1 |
| 20260508023041 | 43 | 0 | 0.0 | 1.0 | 0.00 | 0.00 | 0.00 | 59 | 1009.1 |
| 20260508021546 | 43 | 0 | 0.0 | 4.0 | 0.00 | 0.00 | 0.00 | 57 | 1009.1 |
| 20260508020047 | 43 | 273 | 0.0 | 3.0 | 0.00 | 0.00 | 0.00 | 55 | 1009.0 |
| 20260508014552 | 44 | 0 | 0.0 | 3.0 | 0.00 | 0.01 | 0.00 | 55 | 1008.9 |
| 20260508013037 | 45 | 0 | 0.0 | 5.0 | 0.00 | 0.01 | 0.00 | 52 | 1008.8 |
| 20260508011544 | 46 | 279 | 1.0 | 6.0 | 0.00 | 0.01 | 0.00 | 50 | 1008.8 |
| 20260508010051 | 46 | 267 | 1.0 | 4.0 | 0.00 | 0.01 | 0.00 | 49 | 1008.6 |
| 20260508004546 | 46 | 0 | 0.0 | 3.0 | 0.00 | 0.01 | 0.00 | 49 | 1008.4 |
| 20260508003038 | 48 | 279 | 1.0 | 6.0 | 0.00 | 0.01 | 0.00 | 46 | 1008.3 |
| 20260508001545 | 49 | 279 | 2.0 | 9.0 | 0.00 | 0.01 | 0.00 | 43 | 1008.2 |
| 20260508000044 | 50 | 244 | 3.0 | 9.0 | 0.00 | 0.01 | 0.00 | 43 | 1007.9 |
| 20260507234542 | 50 | 250 | 2.0 | 8.0 | 0.00 | 0.01 | 0.00 | 45 | 1007.8 |
| 20260507233041 | 52 | 272 | 4.0 | 11.0 | 0.00 | 0.01 | 0.00 | 43 | 1007.6 |
| 20260507231543 | 53 | 273 | 1.0 | 11.0 | 0.00 | 0.01 | 0.00 | 42 | 1007.6 |
| 20260507230042 | 53 | 250 | 3.0 | 11.0 | 0.00 | 0.01 | 0.00 | 40 | 1007.6 |
| 20260507224537 | 53 | 255 | 5.0 | 16.0 | 0.00 | 0.01 | 0.00 | 39 | 1007.7 |
| 20260507223045 | 54 | 288 | 3.0 | 11.0 | 0.00 | 0.01 | 0.00 | 43 | 1007.5 |
| 20260507221545 | 54 | 307 | 5.0 | 12.0 | 0.00 | 0.01 | 0.00 | 40 | 1007.6 |
| 20260507220042 | 55 | 265 | 4.0 | 14.0 | 0.00 | 0.01 | 0.00 | 41 | 1007.7 |
| 20260507214537 | 54 | 269 | 7.0 | 18.0 | 0.00 | 0.02 | 0.00 | 42 | 1007.8 |
| 20260507213037 | 54 | 282 | 5.0 | 16.0 | 0.00 | 0.02 | 0.00 | 44 | 1007.6 |
| 20260507211537 | 54 | 260 | 5.0 | 15.0 | 0.00 | 0.02 | 0.00 | 44 | 1007.7 |
| 20260507210053 | 54 | 286 | 4.0 | 15.0 | 0.00 | 0.02 | 0.00 | 49 | 1007.7 |
| 20260507204541 | 54 | 280 | 5.0 | 17.0 | 0.00 | 0.03 | 0.00 | 44 | 1007.7 |
| 20260507203114 | 54 | 266 | 7.0 | 19.0 | 0.00 | 0.03 | 0.00 | 44 | 1007.8 |
| 20260507201537 | 55 | 256 | 7.0 | 16.0 | 0.00 | 0.03 | 0.00 | 45 | 1007.7 |
| 20260507200037 | 55 | 240 | 7.0 | 16.0 | 0.00 | 0.03 | 0.00 | 46 | 1007.9 |
| 20260507194536 | 54 | 230 | 8.0 | 18.0 | 0.00 | 0.03 | 0.00 | 50 | 1008.0 |
| 20260507193044 | 54 | 238 | 9.0 | 17.0 | 0.00 | 0.03 | 0.00 | 45 | 1007.9 |
| 20260507191545 | 54 | 315 | 6.0 | 20.0 | 0.00 | 0.03 | 0.00 | 48 | 1008.2 |
| 20260507190046 | 54 | 284 | 7.0 | 19.0 | 0.00 | 0.03 | 0.00 | 48 | 1008.3 |
| 20260507184537 | 53 | 234 | 7.0 | 15.0 | 0.00 | 0.04 | 0.00 | 50 | 1008.5 |
| 20260507183036 | 53 | 285 | 7.0 | 15.0 | 0.00 | 0.04 | 0.00 | 49 | 1008.7 |
| 20260507181537 | 53 | 246 | 9.0 | 19.0 | 0.00 | 0.04 | 0.00 | 50 | 1008.7 |
| 20260507180045 | 53 | 266 | 4.0 | 14.0 | 0.00 | 0.04 | 0.00 | 53 | 1008.8 |
| 20260507174546 | 54 | 194 | 4.0 | 18.0 | 0.00 | 0.08 | 0.00 | 54 | 1008.9 |
| 20260507173108 | 52 | 241 | 7.0 | 16.0 | 0.00 | 0.08 | 0.00 | 54 | 1009.0 |
| 20260507171542 | 52 | 274 | 3.0 | 10.0 | 0.00 | 0.08 | 0.00 | 55 | 1009.0 |
| 20260507170039 | 52 | 284 | 2.0 | 10.0 | 0.00 | 0.08 | 0.00 | 58 | 1009.1 |
| 20260507164537 | 52 | 281 | 6.0 | 14.0 | 0.00 | 0.16 | 0.00 | 57 | 1009.4 |
| 20260507163043 | 52 | 255 | 5.0 | 15.0 | 0.00 | 0.16 | 0.00 | 55 | 1009.4 |
| 20260507161548 | 52 | 203 | 7.0 | 16.0 | 0.00 | 0.16 | 0.00 | 54 | 1009.5 |
| 20260507160048 | 50 | 184 | 6.0 | 13.0 | 0.00 | 0.16 | 0.00 | 58 | 1009.7 |
| 20260507154541 | 51 | 262 | 7.0 | 15.0 | 0.00 | 0.24 | 0.00 | 55 | 1009.8 |
| 20260507153037 | 51 | 293 | 6.0 | 15.0 | 0.00 | 0.24 | 0.00 | 60 | 1009.8 |
| 20260507151544 | 51 | 229 | 5.0 | 17.0 | 0.00 | 0.24 | 0.00 | 58 | 1009.8 |
| 20260507150043 | 50 | 218 | 3.0 | 16.0 | 0.00 | 0.24 | 0.00 | 60 | 1009.9 |
| 20260507144542 | 49 | 238 | 7.0 | 14.0 | 0.00 | 0.36 | 0.00 | 56 | 1010.0 |
| 20260507143054 | 49 | 273 | 6.0 | 16.0 | 0.00 | 0.36 | 0.00 | 60 | 1010.1 |
| 20260507141548 | 48 | 320 | 5.0 | 16.0 | 0.00 | 0.36 | 0.00 | 58 | 1010.0 |
| 20260507140037 | 48 | 279 | 5.0 | 13.0 | 0.00 | 0.36 | 0.00 | 61 | 1010.1 |
| 20260507134549 | 47 | 263 | 3.0 | 16.0 | 0.00 | 0.41 | 0.00 | 64 | 1010.3 |
| 20260507133111 | 46 | 288 | 5.0 | 16.0 | 0.00 | 0.41 | 0.00 | 67 | 1010.3 |
| 20260507131545 | 45 | 205 | 6.0 | 15.0 | 0.00 | 0.41 | 0.00 | 66 | 1010.4 |
| 20260507130048 | 45 | 236 | 3.0 | 12.0 | 0.00 | 0.41 | 0.00 | 71 | 1010.5 |
| 20260507124537 | 44 | 250 | 3.0 | 10.0 | 0.00 | 0.46 | 0.00 | 72 | 1010.5 |
| 20260507123040 | 43 | 288 | 4.0 | 10.0 | 0.00 | 0.46 | 0.00 | 73 | 1010.4 |
| 20260507121541 | 42 | 232 | 5.0 | 9.0 | 0.00 | 0.46 | 0.00 | 76 | 1010.3 |
| 20260507120042 | 41 | 276 | 4.0 | 10.0 | 0.00 | 0.46 | 0.00 | 79 | 1010.4 |
| 20260507114555 | 40 | 311 | 3.0 | 10.0 | 0.00 | 0.50 | 0.00 | 82 | 1010.2 |
| 20260507113039 | 40 | 283 | 5.0 | 11.0 | 0.00 | 0.50 | 0.00 | 84 | 1010.3 |
| 20260507111541 | 39 | 255 | 2.0 | 10.0 | 0.00 | 0.50 | 0.00 | 87 | 1010.1 |
| 20260507110042 | 39 | 279 | 3.0 | 8.0 | 0.00 | 0.50 | 0.00 | 89 | 1009.9 |
| 20260507104544 | 38 | 279 | 3.0 | 9.0 | 0.00 | 0.50 | 0.00 | 90 | 1009.9 |
| 20260507103048 | 38 | 232 | 3.0 | 8.0 | 0.00 | 0.50 | 0.00 | 92 | 1009.7 |
| 20260507101545 | 38 | 247 | 2.0 | 8.0 | 0.00 | 0.50 | 0.00 | 93 | 1009.5 |
| 20260507100040 | 39 | 256 | 2.0 | 7.0 | 0.00 | 0.50 | 0.00 | 93 | 1009.5 |
| 20260507094557 | 39 | 273 | 3.0 | 9.0 | 0.00 | 0.50 | 0.00 | 92 | 1009.6 |
| 20260507093046 | 40 | 282 | 2.0 | 7.0 | 0.00 | 0.50 | 0.00 | 91 | 1009.5 |
| 20260507091543 | 40 | 290 | 4.0 | 13.0 | 0.00 | 0.50 | 0.00 | 91 | 1009.3 |
| 20260507090044 | 41 | 259 | 4.0 | 8.0 | 0.00 | 0.50 | 0.00 | 92 | 1009.3 |
| 20260507084542 | 41 | 269 | 3.0 | 9.0 | 0.00 | 0.50 | 0.00 | 94 | 1009.3 |
| 20260507083040 | 42 | 289 | 4.0 | 8.0 | 0.00 | 0.50 | 0.00 | 94 | 1009.2 |
| 20260507081542 | 42 | 255 | 1.0 | 8.0 | 0.00 | 0.50 | 0.00 | 94 | 1009.3 |
| 20260507080036 | 43 | 273 | 1.0 | 9.0 | 0.00 | 0.50 | 0.00 | 94 | 1009.4 |
| 20260507074549 | 43 | 300 | 2.0 | 8.0 | 0.00 | 0.50 | 0.00 | 94 | 1009.3 |
| 20260507073048 | 43 | 237 | 3.0 | 8.0 | 0.00 | 0.50 | 0.00 | 93 | 1009.2 |
| 20260507071542 | 43 | 252 | 5.0 | 11.0 | 0.00 | 0.50 | 0.00 | 93 | 1009.1 |
| 20260507070051 | 43 | 282 | 3.0 | 11.0 | 0.00 | 0.50 | 0.00 | 94 | 1009.0 |
| 20260507064548 | 43 | 275 | 3.0 | 10.0 | 0.00 | 0.50 | 0.00 | 95 | 1008.9 |
| 20260507063040 | 43 | 286 | 3.0 | 13.0 | 0.00 | 0.50 | 0.00 | 96 | 1008.7 |
| 20260507061539 | 43 | 235 | 4.0 | 10.0 | 0.00 | 0.50 | 0.00 | 97 | 1008.7 |
| 20260507060040 | 44 | 212 | 3.0 | 12.0 | 0.00 | 0.50 | 0.00 | 97 | 1008.7 |
| 20260507054544 | 44 | 256 | 1.0 | 7.0 | 0.00 | 0.50 | 0.00 | 97 | 1008.7 |
| 20260507053044 | 44 | 0 | 1.0 | 8.0 | 0.00 | 0.50 | 0.00 | 97 | 1008.7 |
| 20260507051542 | 44 | 272 | 1.0 | 8.0 | 0.00 | 0.50 | 0.00 | 97 | 1008.6 |
| 20260507050040 | 44 | 291 | 1.0 | 4.0 | 0.00 | 0.50 | 0.00 | 98 | 1008.5 |
| 20260507044556 | 44 | 177 | 0.0 | 3.0 | 0.00 | 0.50 | 0.00 | 98 | 1009.0 |
| 20260507043043 | 44 | 0 | 1.0 | 7.0 | 0.00 | 0.50 | 0.00 | 97 | 1008.7 |
| 20260507041546 | 45 | 261 | 2.0 | 6.0 | 0.00 | 0.50 | 0.00 | 97 | 1009.4 |
| 20260507040045 | 45 | 290 | 0.0 | 4.0 | 0.00 | 0.50 | 0.00 | 97 | 1009.0 |
| 20260507034544 | 45 | 0 | 2.0 | 7.0 | 0.00 | 0.50 | 0.50 | 97 | 1008.8 |
| 20260507033050 | 45 | 0 | 1.0 | 7.0 | 0.00 | 0.50 | 0.50 | 97 | 1009.0 |
| 20260507031556 | 45 | 179 | 0.0 | 3.0 | 0.00 | 0.50 | 0.50 | 97 | 1009.0 |